Bridgeport, CT

7:43 AM EDT on September 20, 2017 (GMT -0400)
Sikorsky Memorial

Weather History for KBDR - March, 2014

Change the Weather History Date:

Friday, March 7, 2014

  Actual Average Record
Temperature  
Mean Temperature 28 °F 37 °F  
Max Temperature 36 °F 44 °F 67 °F (1987)
Min Temperature 20 °F 29 °F 10 °F (1990)
Degree Days  
Heating Degree Days 37 28  
Month to date heating degree days 276 204  
Since 1 July heating degree days 4324 4091  
Cooling Degree Days 0 0  
Month to date cooling degree days 0 0  
Year to date cooling degree days 0 0  
Moisture  
Dew Point 19 °F    
Average Humidity 66    
Maximum Humidity 75    
Minimum Humidity 56    
Precipitation  
Precipitation 0.00 in 0.14 in 1.94 in (1967)
Month to date precipitation T 0.87  
Year to date precipitation 6.98 6.76  
Snow  
Snow 0.00 in 0.20 in 1.20 in (1969)
Month to date snowfall T 1.7  
Since 1 July snowfall 56.2 23.3  
Snow Depth 0.00 in    
Sea Level Pressure  
Sea Level Pressure 30.24 in    
Wind  
Wind Speed 8 mph (NNE)    
Max Wind Speed 15 mph    
Max Gust Speed 18 mph    
Visibility 10 miles    
Events      
T = Trace of Precipitation, MM = Missing Value Source: NWS Daily Summary

Daily Weather History Graph

Daily Weather History Graph

Search for Another Location

Airport or City:

Trip Planner

Search our weather history database for the weather conditions in past years. The results will help you decide how hot, cold, wet, or windy it might be!

Date:

Astronomy

Mar. 07, 2014 Rise Set
Actual Time 6:17 AM EST 5:50 PM EST
Civil Twilight 5:49 AM EST 6:17 PM EST
Nautical Twilight 5:18 AM EST 6:49 PM EST
Astronomical Twilight 4:45 AM EST 7:21 PM EST
Moon 10:04 AM EST (3/7) No Moon Set
Length of Visible Light 12h 27m
Length of Day
11h 32m
Waxing Crescent, 42% of the Moon is Illuminated
Mar 7
Waxing Crescent
Mar 8
First Quarter
Mar 16
Full
Mar 23
Last Quarter
Mar 30
New

Hourly Weather History & Observations

Time (EST) Temp. Windchill Dew Point Humidity Pressure Visibility Wind Dir Wind Speed Gust Speed Precip Events Conditions
12:52 AM 21.9 °F 13.4 °F 10.9 °F 63% 30.49 in 10.0 mi North 6.9 mph - N/A   Clear
1:52 AM 21.0 °F 12.4 °F 12.0 °F 68% 30.47 in 10.0 mi North 6.9 mph - N/A   Partly Cloudy
2:40 AM 21.0 °F 11.4 °F 12.0 °F 68% 30.43 in 10.0 mi North 8.1 mph - N/A   Mostly Cloudy
2:52 AM 21.0 °F 11.4 °F 12.0 °F 68% 30.43 in 10.0 mi North 8.1 mph - N/A   Overcast
3:52 AM 21.9 °F 11.0 °F 12.9 °F 68% 30.42 in 10.0 mi NNE 10.4 mph - N/A   Overcast
4:52 AM 23.0 °F 13.1 °F 12.9 °F 65% 30.41 in 10.0 mi North 9.2 mph - N/A   Overcast
5:52 AM 23.0 °F 13.9 °F 14.0 °F 68% 30.39 in 10.0 mi North 8.1 mph - N/A   Overcast
6:52 AM 24.1 °F 16.0 °F 15.1 °F 69% 30.40 in 10.0 mi NNE 6.9 mph - N/A   Overcast
7:52 AM 25.0 °F 15.5 °F 16.0 °F 69% 30.36 in 10.0 mi NNE 9.2 mph - N/A   Overcast
8:52 AM 28.0 °F 21.7 °F 18.0 °F 66% 30.34 in 10.0 mi NNE 5.8 mph - N/A   Overcast
9:52 AM 30.0 °F 20.0 °F 19.9 °F 66% 30.32 in 10.0 mi NNE 12.7 mph - N/A   Mostly Cloudy
10:12 AM 30.9 °F 22.8 °F 19.9 °F 64% 30.31 in 10.0 mi NNE 9.2 mph - N/A   Partly Cloudy
10:52 AM 32.0 °F 23.6 °F 21.9 °F 66% 30.32 in 10.0 mi NE 10.4 mph - N/A   Clear
11:20 AM 32.0 °F 23.6 °F 21.0 °F 64% 30.30 in 10.0 mi NE 10.4 mph - N/A   Mostly Cloudy
11:52 AM 33.1 °F 23.9 °F 21.9 °F 64% 30.27 in 10.0 mi NE 12.7 mph - N/A   Overcast
12:24 PM 33.1 °F 25.5 °F 21.9 °F 64% 30.24 in 10.0 mi ENE 9.2 mph - N/A   Partly Cloudy
12:39 PM 33.1 °F 26.9 °F 21.9 °F 64% 30.24 in 10.0 mi NE 6.9 mph - N/A   Mostly Cloudy
12:52 PM 34.0 °F 28.8 °F 21.9 °F 61% 30.24 in 10.0 mi NE 5.8 mph - N/A   Overcast
1:52 PM 34.0 °F 26.6 °F 21.0 °F 59% 30.19 in 10.0 mi NE 9.2 mph - N/A   Overcast
2:52 PM 35.1 °F 27.9 °F 21.0 °F 57% 30.14 in 10.0 mi North 9.2 mph - N/A   Overcast
3:52 PM 36.0 °F 29.6 °F 21.9 °F 57% 30.11 in 10.0 mi North 8.1 mph - N/A   Overcast
4:52 PM 36.0 °F 29.0 °F 21.9 °F 57% 30.09 in 10.0 mi North 9.2 mph - N/A   Overcast
5:52 PM 36.0 °F 29.6 °F 21.9 °F 57% 30.08 in 10.0 mi NNE 8.1 mph - N/A   Overcast
6:52 PM 36.0 °F 31.1 °F 23.0 °F 59% 30.06 in 10.0 mi NE 5.8 mph - N/A   Overcast
7:11 PM 36.0 °F 30.3 °F 21.9 °F 57% 30.05 in 10.0 mi NE 6.9 mph - N/A   Overcast
7:36 PM 36.0 °F 29.0 °F 21.9 °F 57% 30.04 in 10.0 mi NNE 9.2 mph - N/A   Overcast
7:52 PM 36.0 °F 29.6 °F 23.0 °F 59% 30.04 in 10.0 mi NNE 8.1 mph - N/A   Overcast
8:52 PM 36.0 °F 29.6 °F 24.1 °F 62% 30.02 in 10.0 mi NNE 8.1 mph - N/A   Overcast
9:52 PM 35.1 °F 26.9 °F 28.0 °F 76% 29.99 in 10.0 mi North 11.5 mph - N/A   Overcast
10:52 PM 34.0 °F 28.0 °F 27.0 °F 75% 29.95 in 10.0 mi North 6.9 mph - N/A   Scattered Clouds
11:52 PM 34.0 °F 28.8 °F 27.0 °F 75% 29.92 in 10.0 mi North 5.8 mph - N/A   Scattered Clouds